GW0658 Weather Reports


Display with metric or nautical units.
time (UTC)temp
F
wind
direction
speed
MPH
gust
MPH
rain 1hr
in
rain 24hr
in
rain mn
in
humidity
%
barometer
mb
20260903202521 66 223 5.0 12.0 0.00 0.00 0.00 56 1016.3
20260903202021 66 230 5.0 9.0 0.00 0.00 0.00 54 1016.3
20260903201542 66 205 3.0 9.0 0.00 0.00 0.00 51 1016.4
20260903201020 66 167 3.0 10.0 0.00 0.00 0.00 51 1016.3
20260903200523 66 207 4.0 10.0 0.00 0.00 0.00 52 1016.4
20260903200040 67 195 3.0 9.0 0.00 0.00 0.00 52 1016.5
20260903195524 67 225 4.0 10.0 0.00 0.00 0.00 53 1016.5
20260903195029 66 212 3.0 10.0 0.00 0.00 0.00 54 1016.6
20260903194550 66 221 3.0 11.0 0.00 0.00 0.00 55 1016.6
20260903194021 66 198 3.0 12.0 0.00 0.00 0.00 53 1016.6
20260903193521 66 206 4.0 12.0 0.00 0.00 0.00 53 1016.6
20260903193049 66 0 3.0 11.0 0.00 0.00 0.00 53 1016.7
20260903192521 66 211 5.0 12.0 0.00 0.00 0.00 53 1016.7
20260903192021 66 185 4.0 12.0 0.00 0.00 0.00 52 1016.7
20260903191545 66 164 4.0 10.0 0.00 0.00 0.00 52 1016.8
20260903191027 66 217 3.0 10.0 0.00 0.00 0.00 53 1016.8
20260903190520 65 236 3.0 10.0 0.00 0.00 0.00 54 1016.8
20260903190054 65 226 4.0 10.0 0.00 0.00 0.00 53 1017.1
20260903185522 65 182 3.0 10.0 0.00 0.00 0.00 53 1017.1
20260903185024 65 234 3.0 10.0 0.00 0.00 0.00 53 1017.2
20260903184543 65 205 5.0 10.0 0.00 0.00 0.00 53 1017.2
20260903184020 65 184 3.0 9.0 0.00 0.00 0.00 54 1017.2
20260903183526 65 178 4.0 9.0 0.00 0.00 0.00 54 1017.3
20260903183043 65 239 3.0 10.0 0.00 0.00 0.00 54 1017.2
20260903182520 65 275 2.0 10.0 0.00 0.00 0.00 54 1017.3
20260903182020 65 172 4.0 9.0 0.00 0.00 0.00 54 1017.3
20260903181546 64 216 3.0 11.0 0.00 0.00 0.00 55 1017.2
20260903181019 64 55 4.0 11.0 0.00 0.00 0.00 54 1017.3
20260903180523 64 206 4.0 12.0 0.00 0.00 0.00 55 1017.3
20260903180050 64 198 3.0 12.0 0.00 0.00 0.00 55 1017.4
20260903175521 64 225 4.0 12.0 0.00 0.00 0.00 55 1017.3
20260903175021 64 218 3.0 10.0 0.00 0.00 0.00 56 1017.4
20260903174542 63 177 3.0 10.0 0.00 0.00 0.00 56 1017.4
20260903174021 63 155 2.0 10.0 0.00 0.00 0.00 57 1017.4
20260903173518 63 74 3.0 9.0 0.00 0.00 0.00 57 1017.3
20260903173047 63 203 3.0 9.0 0.00 0.00 0.00 57 1017.3
20260903172520 63 28 4.0 9.0 0.00 0.00 0.00 57 1017.4
20260903172020 63 207 2.0 6.0 0.00 0.00 0.00 58 1017.6
20260903171548 63 152 2.0 6.0 0.00 0.00 0.00 57 1017.6
20260903171023 63 196 3.0 6.0 0.00 0.00 0.00 59 1017.6
20260903170523 62 21 2.0 5.0 0.00 0.00 0.00 60 1017.6
20260903170054 61 282 2.0 8.0 0.00 0.00 0.00 60 1017.6
20260903165521 61 186 1.0 9.0 0.00 0.00 0.00 59 1017.6
20260903165020 61 262 2.0 11.0 0.00 0.00 0.00 61 1017.6
20260903164542 61 171 4.0 11.0 0.00 0.00 0.00 61 1017.6
20260903164020 60 244 2.0 7.0 0.00 0.00 0.00 61 1017.6
20260903163526 60 24 0.0 5.0 0.00 0.00 0.00 63 1017.7
20260903163058 60 206 1.0 5.0 0.00 0.00 0.00 64 1017.6
20260903162523 60 0 1.0 8.0 0.00 0.00 0.00 65 1017.7
20260903162023 59 235 1.0 8.0 0.00 0.00 0.00 66 1017.8
20260903161548 59 19 1.0 7.0 0.00 0.00 0.00 64 1017.7
20260903161022 58 209 0.0 4.0 0.00 0.00 0.00 65 1017.9
20260903160525 58 192 1.0 4.0 0.00 0.00 0.00 65 1017.9
20260903160041 58 193 1.0 4.0 0.00 0.00 0.00 65 1017.9
20260903155521 58 0 1.0 4.0 0.00 0.00 0.00 66 1018.0
20260903155020 58 129 1.0 5.0 0.00 0.00 0.00 65 1017.9
20260903154541 57 197 1.0 5.0 0.00 0.00 0.00 66 1018.0
20260903154024 57 0 0.0 5.0 0.00 0.00 0.00 66 1018.0
20260903153525 57 0 1.0 5.0 0.00 0.00 0.00 67 1018.1
20260903153044 56 275 0.0 3.0 0.00 0.00 0.00 67 1018.0
20260903152523 56 25 0.0 3.0 0.00 0.00 0.00 68 1018.1
20260903152021 56 103 0.0 3.0 0.00 0.00 0.00 68 1018.0
20260903151540 56 0 0.0 3.0 0.00 0.00 0.00 68 1018.0
20260903151021 56 203 0.0 3.0 0.00 0.00 0.00 68 1017.9
20260903150518 56 0 1.0 2.0 0.00 0.00 0.00 68 1018.0
20260903150100 55 143 1.0 4.0 0.00 0.00 0.00 69 1017.9
20260903145521 55 0 0.0 4.0 0.00 0.00 0.00 68 1017.9
20260903145021 54 0 0.0 0.0 0.00 0.00 0.00 67 1018.0
20260903144540 53 0 0.0 0.0 0.00 0.00 0.00 67 1017.9
20260903144024 53 0 0.0 0.0 0.00 0.00 0.00 66 1017.9
20260903143523 53 0 0.0 0.0 0.00 0.00 0.00 66 1017.8
20260903143042 53 0 0.0 0.0 0.00 0.00 0.00 66 1017.7
20260903142521 52 0 0.0 0.0 0.00 0.00 0.00 66 1017.7
20260903142020 52 0 0.0 0.0 0.00 0.00 0.00 66 1017.7
20260903141545 52 0 0.0 0.0 0.00 0.00 0.00 66 1017.6
20260903141023 52 0 0.0 0.0 0.00 0.00 0.00 66 1017.4
20260903140520 52 0 0.0 0.0 0.00 0.00 0.00 66 1017.4
20260903140046 52 0 0.0 0.0 0.00 0.00 0.00 66 1017.4
20260903135519 52 0 0.0 2.0 0.00 0.00 0.00 66 1017.5
20260903135023 52 0 0.0 2.0 0.00 0.00 0.00 66 1017.4
20260903134538 52 67 0.0 2.0 0.00 0.00 0.00 66 1017.4
20260903134024 52 0 0.0 3.0 0.00 0.00 0.00 66 1017.4
20260903133524 52 0 0.0 3.0 0.00 0.00 0.00 67 1017.3
20260903133045 52 50 1.0 3.0 0.00 0.00 0.00 67 1017.4
20260903132520 52 65 0.0 3.0 0.00 0.00 0.00 67 1017.3
20260903132019 52 63 0.0 3.0 0.00 0.00 0.00 67 1017.3
20260903131543 52 0 0.0 0.0 0.00 0.00 0.00 67 1017.3
20260903131019 52 0 0.0 3.0 0.00 0.00 0.00 67 1017.4
20260903130522 52 0 0.0 3.0 0.00 0.00 0.00 67 1017.4
20260903130041 52 0 1.0 2.0 0.00 0.00 0.00 67 1017.4
20260903125524 52 60 1.0 3.0 0.00 0.00 0.00 67 1017.4
20260903125029 52 0 0.0 3.0 0.00 0.00 0.00 67 1017.4
20260903124559 52 0 0.0 2.0 0.00 0.00 0.00 67 1017.5
20260903124022 52 0 0.0 2.0 0.00 0.00 0.00 67 1017.4
20260903123522 52 67 0.0 3.0 0.00 0.00 0.00 67 1017.4
20260903123043 52 91 0.0 3.0 0.00 0.00 0.00 67 1017.4
20260903122520 52 67 0.0 3.0 0.00 0.00 0.00 67 1017.5
20260903122019 51 0 0.0 3.0 0.00 0.00 0.00 67 1017.5
20260903121542 51 0 0.0 4.0 0.00 0.00 0.00 67 1017.5
20260903121018 52 0 1.0 4.0 0.00 0.00 0.00 67 1017.6
20260903120521 52 68 1.0 3.0 0.00 0.00 0.00 67 1017.6
20260903120042 52 69 0.0 3.0 0.00 0.00 0.00 67 1017.7
20260903115521 52 0 0.0 2.0 0.00 0.00 0.00 67 1017.7
20260903115020 51 60 0.0 2.0 0.00 0.00 0.00 67 1017.8
20260903114604 51 80 0.0 3.0 0.00 0.00 0.00 66 1017.9
20260903114022 51 68 1.0 3.0 0.00 0.00 0.00 66 1017.8
20260903113524 51 64 1.0 3.0 0.00 0.00 0.00 67 1017.8
20260903113041 51 0 1.0 3.0 0.00 0.00 0.00 67 1017.8
20260903112521 51 0 0.0 3.0 0.00 0.00 0.00 68 1017.8
20260903112022 51 0 0.0 4.0 0.00 0.00 0.00 68 1017.9
20260903111547 51 65 1.0 4.0 0.00 0.00 0.00 69 1017.9
20260903111022 51 57 0.0 4.0 0.00 0.00 0.00 69 1017.9
20260903110522 51 0 0.0 0.0 0.00 0.00 0.00 69 1018.0
20260903110044 51 0 0.0 2.0 0.00 0.00 0.00 69 1018.1
20260903105519 51 0 0.0 3.0 0.00 0.00 0.00 69 1018.1
20260903105020 51 0 0.0 3.0 0.00 0.00 0.00 69 1018.1
20260903104541 52 0 0.0 3.0 0.00 0.00 0.00 69 1018.0
20260903104022 52 65 0.0 3.0 0.00 0.00 0.00 70 1018.1
20260903103524 52 0 0.0 3.0 0.00 0.00 0.00 70 1018.1
20260903103050 52 0 1.0 3.0 0.00 0.00 0.00 71 1018.1
20260903102518 52 72 1.0 3.0 0.00 0.00 0.00 71 1018.1
20260903102023 52 71 1.0 3.0 0.00 0.00 0.00 71 1018.1
20260903101546 52 69 1.0 3.0 0.00 0.00 0.00 72 1018.1
20260903101024 52 0 0.0 3.0 0.00 0.00 0.00 72 1018.2
20260903100524 52 0 0.0 3.0 0.00 0.00 0.00 73 1018.1
20260903100054 52 0 0.0 3.0 0.00 0.00 0.00 74 1018.1
20260903095523 52 65 1.0 3.0 0.00 0.00 0.00 75 1018.2
20260903095023 52 85 1.0 3.0 0.00 0.00 0.00 75 1018.1
20260903094556 52 68 1.0 3.0 0.00 0.00 0.00 75 1018.2
20260903094023 52 68 1.0 3.0 0.00 0.00 0.00 75 1018.3
20260903093527 52 65 0.0 2.0 0.00 0.00 0.00 75 1018.4
20260903093123 52 0 0.0 0.0 0.00 0.00 0.00 75 1018.4
20260903092524 52 0 0.0 0.0 0.00 0.00 0.00 75 1018.3
20260903092024 52 0 0.0 0.0 0.00 0.00 0.00 75 1018.4
20260903091555 52 0 0.0 0.0 0.00 0.00 0.00 75 1018.5
20260903091024 52 0 0.0 0.0 0.00 0.00 0.00 75 1018.5
20260903090523 52 0 0.0 0.0 0.00 0.00 0.00 76 1018.6
20260903090051 52 0 0.0 0.0 0.00 0.00 0.00 76 1018.6
20260903085523 52 0 0.0 0.0 0.00 0.00 0.00 76 1018.7
20260903085022 52 0 0.0 0.0 0.00 0.00 0.00 76 1018.6
20260903084546 53 0 0.0 0.0 0.00 0.00 0.00 76 1018.6
20260903084023 53 0 0.0 0.0 0.00 0.00 0.00 76 1018.6
20260903083521 52 0 0.0 0.0 0.00 0.00 0.00 76 1018.6
20260903083044 52 0 0.0 0.0 0.00 0.00 0.00 77 1018.6
20260903082527 52 0 0.0 0.0 0.00 0.00 0.00 77 1018.6
20260903082024 52 0 0.0 0.0 0.00 0.00 0.00 77 1018.6
20260903081540 52 0 0.0 0.0 0.00 0.00 0.00 77 1018.6
20260903081028 52 0 0.0 0.0 0.00 0.00 0.00 77 1018.6
20260903080532 53 0 0.0 0.0 0.00 0.00 0.00 77 1018.7
20260903080049 53 0 0.0 0.0 0.00 0.00 0.00 76 1018.6
20260903075524 53 0 0.0 0.0 0.00 0.00 0.00 76 1018.7
20260903075028 53 0 0.0 0.0 0.00 0.00 0.00 77 1018.6
20260903074544 53 0 0.0 0.0 0.00 0.00 0.00 77 1018.6
20260903074021 52 0 0.0 0.0 0.00 0.00 0.00 77 1018.5
20260903073520 52 0 0.0 0.0 0.00 0.00 0.00 77 1018.5
20260903073053 52 0 0.0 0.0 0.00 0.00 0.00 77 1018.6
20260903072526 52 0 0.0 0.0 0.00 0.00 0.00 77 1018.6
20260903072025 52 0 0.0 0.0 0.00 0.00 0.00 78 1018.6
20260903071608 52 0 0.0 0.0 0.00 0.00 0.00 78 1018.6
20260903071023 52 0 0.0 0.0 0.00 0.00 0.00 78 1018.6
20260903070526 52 0 0.0 0.0 0.00 0.00 0.00 77 1018.6
20260903070057 52 0 0.0 0.0 0.00 0.00 0.00 77 1018.5
20260903065523 52 0 0.0 0.0 0.00 0.00 0.00 77 1018.6
20260903065019 53 0 0.0 0.0 0.00 0.00 0.00 77 1018.6
20260903064554 53 0 0.0 0.0 0.00 0.00 0.00 77 1018.6
20260903064024 53 0 0.0 0.0 0.00 0.00 0.00 77 1018.7
20260903063525 53 0 0.0 0.0 0.00 0.00 0.00 77 1018.6
20260903063048 53 0 0.0 0.0 0.00 0.00 0.00 77 1018.7
20260903062524 53 0 0.0 0.0 0.00 0.00 0.00 77 1018.7
20260903062023 53 0 0.0 0.0 0.00 0.00 0.00 77 1018.7
20260903061546 53 0 0.0 0.0 0.00 0.00 0.00 77 1018.7
20260903061023 53 0 0.0 0.0 0.00 0.00 0.00 78 1018.8
20260903060521 53 0 0.0 0.0 0.00 0.00 0.00 78 1018.9
20260903060042 53 0 0.0 0.0 0.00 0.00 0.00 78 1018.9
20260903055524 53 0 0.0 0.0 0.00 0.00 0.00 78 1019.0
20260903055025 53 0 0.0 0.0 0.00 0.00 0.00 78 1019.0
20260903054549 53 0 0.0 0.0 0.00 0.00 0.00 78 1019.0
20260903054024 53 0 0.0 2.0 0.00 0.00 0.00 79 1019.1
20260903053524 53 0 0.0 2.0 0.00 0.00 0.00 79 1019.2
20260903053044 53 77 1.0 2.0 0.00 0.00 0.00 79 1019.2
20260903052521 53 0 0.0 2.0 0.00 0.00 0.00 79 1019.2
20260903052025 53 0 0.0 0.0 0.00 0.00 0.00 79 1019.2
20260903051551 53 0 0.0 0.0 0.00 0.00 0.00 79 1019.2
20260903051025 53 0 0.0 0.0 0.00 0.00 0.00 78 1019.2
20260903050524 53 0 0.0 0.0 0.00 0.00 0.00 78 1019.2
20260903050105 53 0 0.0 0.0 0.00 0.00 0.00 78 1019.2
20260903045524 53 0 0.0 0.0 0.00 0.00 0.00 78 1019.3
20260903045024 53 0 0.0 0.0 0.00 0.00 0.00 78 1019.3
20260903044556 53 0 0.0 0.0 0.00 0.00 0.00 79 1019.3
20260903044021 53 0 0.0 0.0 0.00 0.00 0.00 78 1019.3
20260903043522 53 0 0.0 0.0 0.00 0.00 0.00 78 1019.3
20260903043042 53 0 0.0 0.0 0.00 0.00 0.00 78 1019.3
20260903042522 53 0 0.0 0.0 0.00 0.00 0.00 78 1019.3
20260903042024 54 0 0.0 0.0 0.00 0.00 0.00 77 1019.2
20260903041541 54 0 0.0 0.0 0.00 0.00 0.00 78 1019.3
20260903041024 54 0 0.0 0.0 0.00 0.00 0.00 77 1019.2
20260903040524 54 0 0.0 0.0 0.00 0.00 0.00 77 1019.1
20260903040055 54 0 0.0 0.0 0.00 0.00 0.00 77 1019.2
20260903035521 54 0 0.0 0.0 0.00 0.00 0.00 76 1019.1
20260903035023 54 0 0.0 0.0 0.00 0.00 0.00 76 1019.0
20260903034545 55 0 0.0 0.0 0.00 0.00 0.00 76 1018.9
20260903034022 55 0 0.0 0.0 0.00 0.00 0.00 76 1018.9
20260903033520 55 0 0.0 0.0 0.00 0.00 0.00 75 1018.9
20260903033041 55 0 0.0 0.0 0.00 0.00 0.00 75 1018.9
20260903032526 55 0 0.0 0.0 0.00 0.00 0.00 75 1018.9
20260903032026 55 0 0.0 0.0 0.00 0.00 0.00 74 1018.9
20260903031547 56 0 0.0 0.0 0.00 0.00 0.00 73 1018.9
20260903031025 56 0 0.0 0.0 0.00 0.00 0.00 72 1018.8
20260903030529 56 0 0.0 2.0 0.00 0.00 0.00 72 1018.9
20260903030042 57 0 0.0 3.0 0.00 0.00 0.00 71 1018.8
20260903025520 57 221 1.0 3.0 0.00 0.00 0.00 71 1018.8
20260903025021 57 198 1.0 3.0 0.00 0.00 0.00 70 1018.8
20260903024541 57 233 1.0 3.0 0.00 0.00 0.00 69 1018.8
20260903024023 58 215 1.0 4.0 0.00 0.00 0.00 69 1018.8
20260903023524 58 215 1.0 4.0 0.00 0.00 0.00 68 1018.8
20260903023048 58 200 2.0 4.0 0.00 0.00 0.00 68 1018.9
20260903022522 59 223 1.0 4.0 0.00 0.00 0.00 67 1018.7
20260903022022 59 194 2.0 3.0 0.00 0.00 0.00 66 1018.9
20260903021548 59 194 1.0 4.0 0.00 0.00 0.00 65 1018.9
20260903021022 59 192 1.0 4.0 0.00 0.00 0.00 65 1018.8
20260903020523 59 193 1.0 6.0 0.00 0.00 0.00 65 1018.9
20260903020047 60 192 2.0 6.0 0.00 0.00 0.00 64 1018.9
20260903015524 60 184 4.0 6.0 0.00 0.00 0.00 64 1018.9
20260903015022 60 193 2.0 5.0 0.00 0.00 0.00 63 1018.9
20260903014559 61 182 3.0 5.0 0.00 0.00 0.00 62 1019.0
20260903014025 61 212 2.0 6.0 0.00 0.00 0.00 62 1019.0
20260903013522 61 233 3.0 6.0 0.00 0.00 0.00 61 1019.0
20260903013041 61 256 3.0 6.0 0.00 0.00 0.00 61 1018.9
20260903012525 61 232 2.0 8.0 0.00 0.00 0.00 61 1019.1
20260903012024 61 192 2.0 10.0 0.00 0.00 0.00 60 1019.0
20260903011540 62 208 3.0 10.0 0.00 0.00 0.00 59 1019.0
20260903011023 62 234 2.0 7.0 0.00 0.00 0.00 59 1019.0
20260903010523 62 198 3.0 8.0 0.00 0.00 0.00 59 1019.1
20260903010047 62 201 2.0 12.0 0.00 0.00 0.00 59 1019.0
20260903005523 62 207 4.0 12.0 0.00 0.00 0.00 58 1019.1
20260903005022 62 221 3.0 10.0 0.00 0.00 0.00 57 1019.0
20260903004551 62 238 3.0 7.0 0.00 0.00 0.00 57 1019.1
20260903004027 62 240 3.0 8.0 0.00 0.00 0.00 57 1019.1
20260903003520 62 234 4.0 9.0 0.00 0.00 0.00 57 1019.1
20260903003107 63 217 5.0 9.0 0.00 0.00 0.00 55 1019.1
20260903002528 63 209 2.0 8.0 0.00 0.00 0.00 55 1019.0
20260903002025 64 189 3.0 8.0 0.00 0.00 0.00 55 1019.1
20260903001545 63 270 3.0 7.0 0.00 0.00 0.00 55 1019.1
20260903001022 63 229 3.0 7.0 0.00 0.00 0.00 55 1019.1
20260903000523 63 186 0.0 8.0 0.00 0.00 0.00 56 1019.1
20260903000053 63 207 4.0 8.0 0.00 0.00 0.00 55 1019.2
20260902235521 64 232 3.0 10.0 0.00 0.00 0.00 54 1019.1
20260902235024 64 244 5.0 10.0 0.00 0.00 0.00 53 1019.2
20260902234553 64 223 4.0 11.0 0.00 0.00 0.00 53 1019.2
20260902234024 65 225 5.0 11.0 0.00 0.00 0.00 52 1019.2
20260902233524 65 199 5.0 8.0 0.00 0.00 0.00 52 1019.3
20260902233048 64 112 3.0 10.0 0.00 0.00 0.00 52 1019.1
20260902232529 65 198 5.0 11.0 0.00 0.00 0.00 49 1019.2
20260902232024 65 41 3.0 11.0 0.00 0.00 0.00 49 1019.2
20260902231545 65 192 5.0 11.0 0.00 0.00 0.00 50 1019.2
20260902231020 64 191 2.0 9.0 0.00 0.00 0.00 51 1019.2
20260902230518 65 225 2.0 7.0 0.00 0.00 0.00 52 1019.3
20260902230046 64 234 3.0 9.0 0.00 0.00 0.00 52 1019.2
20260902225524 65 242 3.0 10.0 0.00 0.00 0.00 50 1019.2
20260902225027 65 204 5.0 12.0 0.00 0.00 0.00 50 1019.2
20260902224601 65 221 5.0 12.0 0.00 0.00 0.00 49 1019.3
20260902224027 66 188 3.0 9.0 0.00 0.00 0.00 48 1019.2
20260902223522 66 188 3.0 10.0 0.00 0.00 0.00 47 1019.3
20260902223042 67 209 4.0 10.0 0.00 0.00 0.00 46 1019.3
20260902222521 67 232 3.0 8.0 0.00 0.00 0.00 43 1019.3
20260902222019 66 34 2.0 9.0 0.00 0.00 0.00 44 1019.4
20260902221601 65 80 2.0 9.0 0.00 0.00 0.00 42 1019.5
20260902221025 66 275 2.0 8.0 0.00 0.00 0.00 42 1019.6
20260902220524 66 191 2.0 10.0 0.00 0.00 0.00 41 1019.6
20260902220048 66 223 5.0 11.0 0.00 0.00 0.00 43 1019.6
20260902215524 66 171 4.0 11.0 0.00 0.00 0.00 42 1019.6
20260902215026 67 199 5.0 11.0 0.00 0.00 0.00 42 1019.9
20260902214612 66 209 5.0 15.0 0.00 0.00 0.00 42 1019.8
20260902214018 66 227 5.0 15.0 0.00 0.00 0.00 41 1019.8
20260902213523 66 195 4.0 11.0 0.00 0.00 0.00 41 1019.9
20260902213053 66 249 5.0 11.0 0.00 0.00 0.00 41 1019.9
20260902212523 66 173 7.0 11.0 0.00 0.00 0.00 42 1019.7
20260902212027 66 173 5.0 12.0 0.00 0.00 0.00 41 1020.0
20260902211551 66 251 5.0 12.0 0.00 0.00 0.00 42 1019.9
20260902211023 67 182 5.0 12.0 0.00 0.00 0.00 42 1019.8
20260902210523 67 178 5.0 11.0 0.00 0.00 0.00 42 1019.9
20260902210046 67 294 4.0 11.0 0.00 0.00 0.00 41 1019.9
20260902205522 67 350 2.0 9.0 0.00 0.00 0.00 42 1019.9
20260902205021 66 220 4.0 9.0 0.00 0.00 0.00 42 1019.8
20260902204543 66 194 4.0 12.0 0.00 0.00 0.00 43 1019.9
20260902204026 66 234 3.0 12.0 0.00 0.00 0.00 43 1019.9
20260902203523 66 198 6.0 10.0 0.00 0.00 0.00 44 1019.9
20260902203049 65 169 3.0 11.0 0.00 0.00 0.00 47 1019.9